< < Back
Terminal Aerodrome Forecast


Current Version              Previous Versions:   1  2  3  4  5  6  7  8  9  

Terminal Aerodrome Forecast

123
FTUS42 KILM 251120
TAFFLO
TAF
KFLO 251120Z 2512/2612 00000KT 1 1/2SM BR SCT040
      TEMPO 2512/2513 6SM BR
     FM251300 08006KT P6SM VCSH BKN020 BKN050
     FM260100 07005KT P6SM SCT010 BKN025=

Latest METAR

688
SAUS70 KWBC 260000 RRM
MTRFLO
METAR KFLO 252353Z 11005KT 10SM SCT038 28/23 A3006 RMK AO2 SLP178
T02780228 10311 20272 53006


USA.gov is the U.S. government's official web portal to all federal, state and local government web resources and services.